Tracking 19570 objects as of 22-Feb-2019
HD Live streaming from Space Station
objects crossing your sky now

SECOR 8 (EGRS 8)

Track SECOR 8 (EGRS 8) now!
10-day predictions
SECOR 8 (EGRS 8) is classified as:


NORAD ID: 2520
Int'l Code: 1966-089B
Perigee: 3,684.5 km
Apogee: 3,717.0 km
Inclination: 89.7 °
Period: 167.7 minutes
Semi major axis: 10071 km
RCS: 0.3272 m2 (medium)
Launch date: October 5, 1966
Source: United States (US)
Launch site: AIR FORCE WESTERN TEST RANGE (AFWTR)
aabbcc
Your satellite tracking list
Your tracking list is empty




NASA's NSSDC Master Catalog

Two Line Element Set (TLE):
1  2520U 66089B   19051.46187475 +.00000000 +00000-0 -78568-3 0  9994
2  2520 089.6855 053.9700 0016138 098.1589 262.1093 08.58902670152382
Source of the keplerian elements: AFSPC